sat.trackr.live / text

‹ back to catalog

STARLINK-37340

NORAD 68708 · 2026-081K

PAYLOAD ACTIVE UNKNOWN

§ Identity

Operator
Country
US
Launch date
2026-04-14
Launch site
AFETR
Launch vehicle
Mass (kg)
RCS (m²)

Purposes: comms

External: N2YO · Heavens-Above · Gunter

§ Orbital elements

Epoch: 2026-09-20T02:12:44.287200Z

Period
93.85 min
Inclination
53.1574°
Eccentricity
0.0001753
Mean motion
15.34403445 rev/d
Perigee alt
461.5 km
Apogee alt
463.9 km
Semi-major
6,840.8 km
B*
2.4585e-4
RAAN
207.7864°
Arg perigee
86.0355°
Mean anomaly
274.0848°
Rev number
2,455

§ Raw data

STARLINK-373401 68708U 26081K   26263.09217925  .00007940  00000+0  24585-3 0  99962 68708  53.1574 207.7864 0001753  86.0355 274.0848 15.34403445 24555

JSON: /api/v1/satellites/68708 · /tle

For live sub-satellite position, see the globe view (requires WebGL).

§ Visibility from observer

Set your observer location to see the next 7 days of passes ≥ 10°. The values pass through the URL so the page stays shareable.

No JS? Fill the form by hand. The geolocation button needs JavaScript.